Time,TemperatureF,DewpointF,PressureIn,WindDirection,WindDirectionDegrees,WindSpeedMPH,WindSpeedGustMPH,Humidity,HourlyPrecipIn,Conditions,Clouds,dailyrainin,SoftwareType,DateUTC
2013-02-21 00:00:00,30.2,-3.1,30.24,NNW,343,2.0,5.8,23,0.00,,,-99.99,FreeWX-Wi 1.01,2013-02-21 05:00:00,
2013-02-21 00:10:00,30.0,-3.3,30.24,NNW,341,2.0,5.8,23,0.00,,,-99.99,FreeWX-Wi 1.01,2013-02-21 05:10:00,
2013-02-21 00:20:00,29.8,-3.5,30.24,NNW,334,2.0,4.0,23,0.00,,,-99.99,FreeWX-Wi 1.01,2013-02-21 05:20:00,
2013-02-21 00:30:00,29.7,-3.5,30.24,NNW,329,2.0,4.0,23,0.00,,,-99.99,FreeWX-Wi 1.01,2013-02-21 05:30:00,
2013-02-21 00:40:00,29.5,-3.6,30.24,NNW,330,2.0,6.3,23,0.00,,,-99.99,FreeWX-Wi 1.01,2013-02-21 05:40:00,
2013-02-21 00:50:00,29.3,-3.8,30.24,NNW,337,2.0,5.4,23,0.00,,,-99.99,FreeWX-Wi 1.01,2013-02-21 05:50:00,
2013-02-21 01:00:00,29.1,-4.0,30.24,NNW,338,2.0,6.3,23,0.00,,,-99.99,FreeWX-Wi 1.01,2013-02-21 06:00:00,
2013-02-21 01:10:00,29.1,-4.0,30.24,NNW,338,2.0,8.1,23,0.00,,,-99.99,FreeWX-Wi 1.01,2013-02-21 06:10:00,
2013-02-21 01:20:00,28.8,-4.4,30.24,NNW,339,2.0,5.4,23,0.00,,,-99.99,FreeWX-Wi 1.01,2013-02-21 06:20:00,
2013-02-21 01:30:00,28.8,-4.4,30.24,NNW,338,3.0,6.3,23,0.00,,,-99.99,FreeWX-Wi 1.01,2013-02-21 06:30:00,
2013-02-21 01:40:00,28.6,-4.5,30.24,NNW,336,3.0,5.8,23,0.00,,,-99.99,FreeWX-Wi 1.01,2013-02-21 06:40:00,
2013-02-21 01:50:00,28.6,-4.5,30.24,NNW,334,3.0,8.1,23,0.00,,,-99.99,FreeWX-Wi 1.01,2013-02-21 06:50:00,
2013-02-21 02:00:00,28.6,-4.5,30.24,NNW,333,3.0,4.0,23,0.00,,,-99.99,FreeWX-Wi 1.01,2013-02-21 07:00:00,
2013-02-21 02:10:00,28.6,-4.5,30.24,NNW,338,3.0,6.3,23,0.00,,,-99.99,FreeWX-Wi 1.01,2013-02-21 07:10:00,
2013-02-21 02:20:00,28.4,-4.5,30.24,NNW,340,2.0,5.8,23,0.00,,,-99.99,FreeWX-Wi 1.01,2013-02-21 07:20:00,
2013-02-21 02:30:00,28.4,-4.5,30.24,NNW,343,2.0,3.6,23,0.00,,,-99.99,FreeWX-Wi 1.01,2013-02-21 07:30:00,
2013-02-21 02:40:00,28.2,-4.7,30.24,NNW,339,2.0,6.3,23,0.00,,,-99.99,FreeWX-Wi 1.01,2013-02-21 07:40:00,
2013-02-21 02:50:00,28.2,-4.7,30.24,NNW,338,3.0,6.3,23,0.00,,,-99.99,FreeWX-Wi 1.01,2013-02-21 07:50:00,
2013-02-21 03:00:00,28.4,-4.5,30.24,NNW,340,3.0,5.8,23,0.00,,,-99.99,FreeWX-Wi 1.01,2013-02-21 08:00:00,
2013-02-21 03:10:00,28.2,-4.7,30.24,NNW,341,3.0,6.3,23,0.00,,,-99.99,FreeWX-Wi 1.01,2013-02-21 08:10:00,
2013-02-21 03:20:00,28.0,-4.9,30.24,NNW,341,4.0,7.6,23,0.00,,,-99.99,FreeWX-Wi 1.01,2013-02-21 08:20:00,
2013-02-21 03:30:00,27.9,-5.1,30.24,NNW,339,4.0,8.7,23,0.00,,,-99.99,FreeWX-Wi 1.01,2013-02-21 08:30:00,
2013-02-21 03:40:00,27.7,-5.3,30.24,NNW,337,4.0,7.2,23,0.00,,,-99.99,FreeWX-Wi 1.01,2013-02-21 08:40:00,
2013-02-21 03:50:00,27.7,-5.3,30.24,NNW,337,4.0,8.1,23,0.00,,,-99.99,FreeWX-Wi 1.01,2013-02-21 08:50:00,
2013-02-21 04:00:00,27.7,-5.3,30.24,NNW,338,4.0,5.8,23,0.00,,,-99.99,FreeWX-Wi 1.01,2013-02-21 09:00:00,
2013-02-21 04:10:00,27.5,-5.4,30.24,NNW,339,3.0,8.1,23,0.00,,,-99.99,FreeWX-Wi 1.01,2013-02-21 09:10:00,
2013-02-21 04:20:00,27.5,-5.4,30.21,NNW,337,3.0,8.1,23,0.00,,,-99.99,FreeWX-Wi 1.01,2013-02-21 09:20:00,
2013-02-21 04:30:00,27.3,-5.6,30.24,NNW,337,3.0,8.1,23,0.00,,,-99.99,FreeWX-Wi 1.01,2013-02-21 09:30:00,
2013-02-21 04:40:00,27.5,-5.4,30.24,NNW,338,3.0,5.8,23,0.00,,,-99.99,FreeWX-Wi 1.01,2013-02-21 09:40:00,
2013-02-21 04:50:00,27.3,-5.6,30.24,NNW,338,3.0,6.3,23,0.00,,,-99.99,FreeWX-Wi 1.01,2013-02-21 09:50:00,
2013-02-21 05:00:00,27.1,-5.6,30.24,NNW,336,3.0,5.4,23,0.00,,,-99.99,FreeWX-Wi 1.01,2013-02-21 10:00:00,
2013-02-21 05:10:00,27.1,-5.6,30.24,NNW,335,3.0,5.4,23,0.00,,,-99.99,FreeWX-Wi 1.01,2013-02-21 10:10:00,
2013-02-21 05:20:00,27.0,-5.8,30.24,NNW,337,3.0,5.4,23,0.00,,,-99.99,FreeWX-Wi 1.01,2013-02-21 10:20:00,
2013-02-21 05:30:00,27.0,-5.8,30.27,NNW,339,3.0,5.8,23,0.00,,,-99.99,FreeWX-Wi 1.01,2013-02-21 10:30:00,
2013-02-21 05:40:00,26.8,-6.0,30.27,NNW,338,3.0,6.7,23,0.00,,,-99.99,FreeWX-Wi 1.01,2013-02-21 10:40:00,
2013-02-21 05:50:00,26.8,-6.0,30.27,NNW,334,3.0,5.8,23,0.00,,,-99.99,FreeWX-Wi 1.01,2013-02-21 10:50:00,
2013-02-21 06:00:00,26.8,-6.0,30.27,NNW,330,2.0,3.1,23,0.00,,,-99.99,FreeWX-Wi 1.01,2013-02-21 11:00:00,
2013-02-21 06:10:00,26.6,-5.3,30.27,NNW,330,2.0,4.0,24,0.00,,,-99.99,FreeWX-Wi 1.01,2013-02-21 11:10:00,
2013-02-21 06:20:00,26.4,-5.4,30.27,NNW,332,1.0,4.0,24,0.00,,,-99.99,FreeWX-Wi 1.01,2013-02-21 11:20:00,
2013-02-21 06:30:00,26.4,-5.4,30.27,NNW,335,2.0,6.3,24,0.00,,,-99.99,FreeWX-Wi 1.01,2013-02-21 11:30:00,
2013-02-21 06:40:00,26.4,-5.4,30.27,NNW,337,2.0,4.9,24,0.00,,,-99.99,FreeWX-Wi 1.01,2013-02-21 11:40:00,
2013-02-21 06:50:00,26.4,-5.4,30.27,NNW,336,2.0,5.8,24,0.00,,,-99.99,FreeWX-Wi 1.01,2013-02-21 11:50:00,
2013-02-21 07:00:00,26.6,-5.3,30.30,NNW,334,3.0,5.8,24,0.00,,,-99.99,FreeWX-Wi 1.01,2013-02-21 12:00:00,
2013-02-21 07:10:00,26.4,-5.4,30.30,NNW,333,2.0,3.1,24,0.00,,,-99.99,FreeWX-Wi 1.01,2013-02-21 12:10:00,
2013-02-21 07:20:00,26.8,-6.0,30.30,NNW,333,2.0,3.6,23,0.00,,,-99.99,FreeWX-Wi 1.01,2013-02-21 12:20:00,
2013-02-21 07:30:00,27.1,-5.6,30.27,NNW,331,2.0,4.9,23,0.00,,,-99.99,FreeWX-Wi 1.01,2013-02-21 12:30:00,
2013-02-21 07:41:00,27.7,-5.3,30.27,NNW,333,2.0,4.0,23,0.00,,,-99.99,FreeWX-Wi 1.01,2013-02-21 12:41:00,
2013-02-21 07:51:00,28.4,-4.5,30.30,NNW,336,2.0,4.9,23,0.00,,,-99.99,FreeWX-Wi 1.01,2013-02-21 12:51:00,
2013-02-21 08:01:00,29.1,-4.0,30.30,NNW,339,2.0,6.3,23,0.00,,,-99.99,FreeWX-Wi 1.01,2013-02-21 13:01:00,
2013-02-21 08:11:00,29.8,-3.5,30.30,NNW,338,3.0,9.6,23,0.00,,,-99.99,FreeWX-Wi 1.01,2013-02-21 13:11:00,
2013-02-21 08:21:00,30.2,-3.1,30.30,NNW,339,3.0,7.2,23,0.00,,,-99.99,FreeWX-Wi 1.01,2013-02-21 13:21:00,
2013-02-21 08:31:00,30.6,-2.7,30.30,NNW,341,4.0,9.6,23,0.00,,,-99.99,FreeWX-Wi 1.01,2013-02-21 13:31:00,
2013-02-21 08:41:00,31.5,-2.0,30.30,NNW,341,4.0,6.7,23,0.00,,,-99.99,FreeWX-Wi 1.01,2013-02-21 13:41:00,
2013-02-21 08:51:00,31.3,-2.2,30.30,NNW,341,4.0,7.6,23,0.00,,,-99.99,FreeWX-Wi 1.01,2013-02-21 13:51:00,
2013-02-21 09:11:00,32.9,-0.8,30.30,NNW,342,4.0,6.7,23,0.00,,,-99.99,FreeWX-Wi 1.01,2013-02-21 14:11:00,
2013-02-21 09:21:00,33.6,-0.2,30.30,NNW,346,4.0,6.3,23,0.00,,,-99.99,FreeWX-Wi 1.01,2013-02-21 14:21:00,
2013-02-21 09:31:00,32.9,-0.8,30.30,NNW,348,4.0,8.7,23,0.00,,,-99.99,FreeWX-Wi 1.01,2013-02-21 14:31:00,
2013-02-21 09:41:00,33.1,-0.6,30.30,NNW,344,4.0,10.1,23,0.00,,,-99.99,FreeWX-Wi 1.01,2013-02-21 14:41:00,
2013-02-21 09:51:00,33.3,-0.4,30.30,NNW,342,5.0,7.6,23,0.00,,,-99.99,FreeWX-Wi 1.01,2013-02-21 14:51:00,
2013-02-21 10:01:00,33.3,-0.4,30.30,NNW,339,5.0,10.1,23,0.00,,,-99.99,FreeWX-Wi 1.01,2013-02-21 15:01:00,
2013-02-21 10:22:00,33.4,-0.4,30.30,NNW,343,5.0,9.6,23,0.00,,,-99.99,FreeWX-Wi 1.01,2013-02-21 15:22:00,
2013-02-21 10:32:00,34.3,-0.6,30.30,NNW,344,5.0,8.7,22,0.00,,,-99.99,FreeWX-Wi 1.01,2013-02-21 15:32:00,
2013-02-21 10:53:00,34.9,0.0,30.30,NNW,344,5.0,9.6,22,0.00,,,-99.99,FreeWX-Wi 1.01,2013-02-21 15:53:00,
2013-02-21 11:13:00,34.9,0.0,30.30,NNW,341,5.0,15.0,22,0.00,,,-99.99,FreeWX-Wi 1.01,2013-02-21 16:13:00,
2013-02-21 11:23:00,36.1,1.0,30.30,NNW,347,5.0,8.3,22,0.00,,,-99.99,FreeWX-Wi 1.01,2013-02-21 16:23:00,
2013-02-21 11:33:00,36.1,1.0,30.27,North,351,4.0,9.6,22,0.00,,,-99.99,FreeWX-Wi 1.01,2013-02-21 16:33:00,
2013-02-21 11:43:00,36.1,1.0,30.27,North,353,4.0,9.2,22,0.00,,,-99.99,FreeWX-Wi 1.01,2013-02-21 16:43:00,
2013-02-21 11:53:00,36.3,1.2,30.27,NNW,345,4.0,10.1,22,0.00,,,-99.99,FreeWX-Wi 1.01,2013-02-21 16:53:00,
2013-02-21 12:03:00,36.9,1.6,30.30,NNW,341,5.0,9.2,22,0.00,,,-99.99,FreeWX-Wi 1.01,2013-02-21 17:03:00,
2013-02-21 12:13:00,37.2,1.9,30.30,NNW,344,4.0,7.2,22,0.00,,,-99.99,FreeWX-Wi 1.01,2013-02-21 17:13:00,
2013-02-21 12:23:00,36.5,1.4,30.27,NNW,347,4.0,11.9,22,0.00,,,-99.99,FreeWX-Wi 1.01,2013-02-21 17:23:00,
2013-02-21 12:33:00,37.8,1.4,30.27,NNW,345,4.0,10.1,21,0.00,,,-99.99,FreeWX-Wi 1.01,2013-02-21 17:33:00,
2013-02-21 12:43:00,37.0,1.8,30.27,NNW,341,5.0,8.7,22,0.00,,,-99.99,FreeWX-Wi 1.01,2013-02-21 17:43:00,
2013-02-21 12:53:00,37.6,1.2,30.27,NNW,343,5.0,8.7,21,0.00,,,-99.99,FreeWX-Wi 1.01,2013-02-21 17:53:00,
2013-02-21 13:03:00,38.3,1.8,30.27,NNW,343,4.0,7.6,21,0.00,,,-99.99,FreeWX-Wi 1.01,2013-02-21 18:03:00,
2013-02-21 13:34:00,39.2,2.7,30.24,NNW,346,4.0,8.3,21,0.00,,,-99.99,FreeWX-Wi 1.01,2013-02-21 18:34:00,
2013-02-21 13:44:00,39.4,2.7,30.24,NNW,343,4.0,8.1,21,0.00,,,-99.99,FreeWX-Wi 1.01,2013-02-21 18:44:00,
2013-02-21 13:54:00,39.6,2.8,30.24,NNW,346,4.0,6.3,21,0.00,,,-99.99,FreeWX-Wi 1.01,2013-02-21 18:54:00,
2013-02-21 14:14:00,39.7,3.0,30.24,NNW,346,4.0,7.6,21,0.00,,,-99.99,FreeWX-Wi 1.01,2013-02-21 19:14:00,
2013-02-21 14:24:00,39.7,3.0,30.24,NNW,346,4.0,8.7,21,0.00,,,-99.99,FreeWX-Wi 1.01,2013-02-21 19:24:00,
2013-02-21 14:35:00,39.9,3.2,30.24,NNW,348,4.0,8.1,21,0.00,,,-99.99,FreeWX-Wi 1.01,2013-02-21 19:35:00,
2013-02-21 14:45:00,40.1,3.4,30.24,NNW,346,4.0,8.3,21,0.00,,,-99.99,FreeWX-Wi 1.01,2013-02-21 19:45:00,
2013-02-21 14:55:00,39.7,3.0,30.24,NNW,343,4.0,10.5,21,0.00,,,-99.99,FreeWX-Wi 1.01,2013-02-21 19:55:00,
2013-02-21 15:05:00,39.6,2.8,30.24,NNW,340,5.0,10.5,21,0.00,,,-99.99,FreeWX-Wi 1.01,2013-02-21 20:05:00,
2013-02-21 15:15:00,39.4,2.7,30.24,NNW,340,5.0,13.6,21,0.00,,,-99.99,FreeWX-Wi 1.01,2013-02-21 20:15:00,
2013-02-21 15:25:00,39.7,3.0,30.24,NNW,342,5.0,12.3,21,0.00,,,-99.99,FreeWX-Wi 1.01,2013-02-21 20:25:00,
2013-02-21 15:35:00,39.2,2.7,30.24,NNW,342,5.0,10.5,21,0.00,,,-99.99,FreeWX-Wi 1.01,2013-02-21 20:35:00,
2013-02-21 15:45:00,39.2,2.7,30.27,NNW,340,6.0,10.1,21,0.00,,,-99.99,FreeWX-Wi 1.01,2013-02-21 20:45:00,
2013-02-21 15:55:00,39.4,2.7,30.27,NNW,339,6.0,10.5,21,0.00,,,-99.99,FreeWX-Wi 1.01,2013-02-21 20:55:00,
2013-02-21 16:05:00,39.0,2.5,30.24,NNW,338,6.0,11.0,21,0.00,,,-99.99,FreeWX-Wi 1.01,2013-02-21 21:05:00,
2013-02-21 16:15:00,39.2,2.7,30.24,NNW,338,5.0,8.1,21,0.00,,,-99.99,FreeWX-Wi 1.01,2013-02-21 21:15:00,
2013-02-21 16:25:00,39.2,2.7,30.24,NNW,339,4.0,7.6,21,0.00,,,-99.99,FreeWX-Wi 1.01,2013-02-21 21:25:00,
2013-02-21 16:35:00,39.2,2.7,30.27,NNW,340,4.0,6.3,21,0.00,,,-99.99,FreeWX-Wi 1.01,2013-02-21 21:35:00,
2013-02-21 16:45:00,38.8,2.3,30.27,NNW,339,4.0,8.7,21,0.00,,,-99.99,FreeWX-Wi 1.01,2013-02-21 21:45:00,
2013-02-21 16:55:00,38.8,2.3,30.27,NNW,339,4.0,8.7,21,0.00,,,-99.99,FreeWX-Wi 1.01,2013-02-21 21:55:00,
2013-02-21 17:05:00,38.5,1.9,30.27,NNW,339,4.0,10.5,21,0.00,,,-99.99,FreeWX-Wi 1.01,2013-02-21 22:05:00,
2013-02-21 17:15:00,38.5,1.9,30.27,NNW,339,4.0,8.1,21,0.00,,,-99.99,FreeWX-Wi 1.01,2013-02-21 22:15:00,
2013-02-21 17:25:00,38.3,1.8,30.27,NNW,335,4.0,6.3,21,0.00,,,-99.99,FreeWX-Wi 1.01,2013-02-21 22:25:00,
2013-02-21 17:35:00,38.1,1.8,30.30,NNW,333,4.0,7.6,21,0.00,,,-99.99,FreeWX-Wi 1.01,2013-02-21 22:35:00,
2013-02-21 17:45:00,37.6,1.2,30.30,NNW,333,4.0,5.8,21,0.00,,,-99.99,FreeWX-Wi 1.01,2013-02-21 22:45:00,
2013-02-21 17:55:00,37.4,1.0,30.30,NNW,334,3.0,5.8,21,0.00,,,-99.99,FreeWX-Wi 1.01,2013-02-21 22:55:00,
2013-02-21 18:05:00,37.0,1.8,30.30,NNW,335,3.0,5.8,22,0.00,,,-99.99,FreeWX-Wi 1.01,2013-02-21 23:05:00,
2013-02-21 18:45:00,36.1,1.0,30.33,NNW,337,2.0,4.0,22,0.00,,,-99.99,FreeWX-Wi 1.01,2013-02-21 23:45:00,
2013-02-21 18:55:00,35.6,0.5,30.33,NW,326,1.0,2.7,22,0.00,,,-99.99,FreeWX-Wi 1.01,2013-02-21 23:55:00,
2013-02-21 19:05:00,35.6,0.5,30.33,North,-999,0.0,3.6,22,0.00,,,-99.99,FreeWX-Wi 1.01,2013-02-22 00:05:00,
2013-02-21 19:15:00,35.2,0.3,30.33,North,-999,0.0,3.1,22,0.00,,,-99.99,FreeWX-Wi 1.01,2013-02-22 00:15:00,
2013-02-21 19:25:00,35.2,0.3,30.33,North,-999,0.0,3.6,22,0.00,,,-99.99,FreeWX-Wi 1.01,2013-02-22 00:25:00,
2013-02-21 19:36:00,34.9,0.0,30.36,North,-999,0.0,0.0,22,0.00,,,-99.99,FreeWX-Wi 1.01,2013-02-22 00:36:00,
2013-02-21 19:46:00,34.5,-0.4,30.36,North,-999,0.0,0.0,22,0.00,,,-99.99,FreeWX-Wi 1.01,2013-02-22 00:46:00,
2013-02-21 19:56:00,34.5,-0.4,30.36,North,-999,0.0,3.1,22,0.00,,,-99.99,FreeWX-Wi 1.01,2013-02-22 00:56:00,
2013-02-21 20:06:00,34.7,-0.2,30.36,North,-999,0.0,4.0,22,0.00,,,-99.99,FreeWX-Wi 1.01,2013-02-22 01:06:00,
2013-02-21 20:16:00,34.9,0.0,30.36,NNW,344,2.0,4.9,22,0.00,,,-99.99,FreeWX-Wi 1.01,2013-02-22 01:16:00,
2013-02-21 20:26:00,35.2,0.3,30.36,NNW,340,2.0,6.7,22,0.00,,,-99.99,FreeWX-Wi 1.01,2013-02-22 01:26:00,
2013-02-21 20:36:00,35.4,0.3,30.36,NNW,341,3.0,5.8,22,0.00,,,-99.99,FreeWX-Wi 1.01,2013-02-22 01:36:00,
2013-02-21 20:46:00,35.4,0.3,30.36,NNW,338,3.0,6.3,22,0.00,,,-99.99,FreeWX-Wi 1.01,2013-02-22 01:46:00,
2013-02-21 20:56:00,35.6,0.5,30.36,NNW,338,3.0,5.8,22,0.00,,,-99.99,FreeWX-Wi 1.01,2013-02-22 01:56:00,
2013-02-21 21:06:00,35.4,0.3,30.36,NNW,339,3.0,6.3,22,0.00,,,-99.99,FreeWX-Wi 1.01,2013-02-22 02:06:00,
2013-02-21 21:16:00,35.4,0.3,30.39,NNW,340,3.0,6.3,22,0.00,,,-99.99,FreeWX-Wi 1.01,2013-02-22 02:16:00,
2013-02-21 21:26:00,35.4,0.3,30.39,NNW,341,3.0,5.8,22,0.00,,,-99.99,FreeWX-Wi 1.01,2013-02-22 02:26:00,
2013-02-21 21:36:00,35.4,0.3,30.39,NNW,339,3.0,8.3,22,0.00,,,-99.99,FreeWX-Wi 1.01,2013-02-22 02:36:00,
2013-02-21 21:46:00,35.1,0.1,30.39,NNW,339,3.0,9.6,22,0.00,,,-99.99,FreeWX-Wi 1.01,2013-02-22 02:46:00,
2013-02-21 21:56:00,35.1,0.1,30.39,NNW,337,3.0,5.4,22,0.00,,,-99.99,FreeWX-Wi 1.01,2013-02-22 02:56:00,
2013-02-21 22:06:00,35.1,0.1,30.39,NNW,340,3.0,8.3,22,0.00,,,-99.99,FreeWX-Wi 1.01,2013-02-22 03:06:00,
2013-02-21 22:16:00,35.1,0.1,30.39,NNW,343,3.0,6.3,22,0.00,,,-99.99,FreeWX-Wi 1.01,2013-02-22 03:16:00,
2013-02-21 22:26:00,34.9,0.0,30.39,NNW,344,3.0,5.8,22,0.00,,,-99.99,FreeWX-Wi 1.01,2013-02-22 03:26:00,
2013-02-21 22:36:00,34.5,-0.4,30.39,NNW,342,3.0,6.3,22,0.00,,,-99.99,FreeWX-Wi 1.01,2013-02-22 03:36:00,
2013-02-21 22:46:00,34.3,-0.6,30.39,NNW,339,3.0,6.3,22,0.00,,,-99.99,FreeWX-Wi 1.01,2013-02-22 03:46:00,
2013-02-21 22:56:00,34.3,-0.6,30.39,NNW,341,3.0,4.9,22,0.00,,,-99.99,FreeWX-Wi 1.01,2013-02-22 03:56:00,
2013-02-21 23:06:00,34.2,-0.6,30.39,NNW,345,2.0,5.4,22,0.00,,,-99.99,FreeWX-Wi 1.01,2013-02-22 04:06:00,
2013-02-21 23:16:00,34.2,-0.6,30.39,NNW,345,2.0,7.6,22,0.00,,,-99.99,FreeWX-Wi 1.01,2013-02-22 04:16:00,
2013-02-21 23:26:00,34.0,-0.8,30.39,NNW,345,2.0,6.3,22,0.00,,,-99.99,FreeWX-Wi 1.01,2013-02-22 04:26:00,
2013-02-21 23:36:00,34.0,-0.8,30.39,NNW,341,3.0,4.0,22,0.00,,,-99.99,FreeWX-Wi 1.01,2013-02-22 04:36:00,
2013-02-21 23:46:00,34.0,-0.8,30.39,NNW,339,2.0,3.6,22,0.00,,,-99.99,FreeWX-Wi 1.01,2013-02-22 04:46:00,
2013-02-21 23:56:00,34.0,-0.8,30.39,NNW,334,2.0,6.3,22,0.00,,,-99.99,FreeWX-Wi 1.01,2013-02-22 04:56:00,